Regional Weather Roundup
Issued by NWS

Home | Current Version | Previous Version | Text Only | Print | Product List | Glossary Off
Versions: 1 2 3 4 5 6 7 8 9 10 11 12 13 14 15 16 17 18 19 20 21 22 23 24 25 26 27 28 29 30 31 32 33 34 35 36 37 38 39 40 41 42 43 44 45 46 47 48 49 50

000
ASUS43 KOAX 251602
RWRNE

WEATHER ROUNDUP FOR NEBRASKA
NATIONAL WEATHER SERVICE OMAHA NE
1100 AM CDT WED MAY 25 2016

NOTES: SATELLITE DATA IS BEING USED TO AUGMENT CLOUD COVER ABOVE
       12000 FEET.
       "FAIR" INDICATES FEW OR NO CLOUDS BELOW 12,000 FEET WITH NO
       SIGNIFICANT WEATHER AND/OR OBSTRUCTIONS TO VISIBILITY.

  * THESE STATIONS DO NOT REPORT WEATHER SUCH AS RAIN...SNOW OR FOG.

NEZ001>004-019>022-054>056-251700-
NEBRASKA PANHANDLE

CITY           SKY/WX    TMP DP  RH WIND       PRES   REMARKS
SCOTTSBLUFF    SUNNY     64  44  48 W7        29.94S
ALLIANCE       SUNNY     67  48  50 W17       29.91S
CHADRON        SUNNY     63  50  62 W9        29.89F
SIDNEY         CLOUDY    66  52  60 S14       29.97F
$$

NEZ057>060-069>072-079>082-251700-
SOUTHWEST NEBRASKA

CITY           SKY/WX    TMP DP  RH WIND       PRES   REMARKS
NORTH PLATTE   SUNNY     70  57  63 W9        29.91R
IMPERIAL       SUNNY     67  54  63 E7        29.93F
LEXINGTON      SUNNY     70  60  69 SE8       29.89S
MCCOOK         SUNNY     70  56  61 E8        29.89S
$$

NEZ005>010-023>029-035>040-094-251700-
NORTH CENTRAL NEBRASKA

CITY           SKY/WX    TMP DP  RH WIND       PRES   REMARKS
VALENTINE      SUNNY     67  55  65 W16       29.85R
AINSWORTH      SUNNY     69  57  65 SW15      29.85S
BROKEN BOW     SUNNY     69  58  67 S14       29.87R
ORD            SUNNY     70  60  70 S14       29.83F
$$

NEZ041-046>049-061>064-073>077-083>087-251700-
SOUTH CENTRAL NEBRASKA

CITY           SKY/WX    TMP DP  RH WIND       PRES   REMARKS
GRAND ISLAND   SUNNY     72  60  66 S12       29.85F
AURORA         SUNNY     71  62  71 S15       29.84F
HASTINGS       SUNNY     68  58  70 SE15      29.86F
KEARNEY *      SUNNY     72  57  60 SE13      29.88R
YORK           SUNNY     70  63  78 S12G17    29.85F
$$

NEZ011>018-030>034-042>045-251700-
NORTHEAST NEBRASKA

CITY           SKY/WX    TMP DP  RH WIND       PRES   REMARKS
NORFOLK        SUNNY     71  60  68 SW9       29.84R
ALBION         SUNNY     70  60  70 SW10      29.84S
BLAIR          PTSUNNY   68  62  82 S14       29.86F
FREMONT        CLOUDY    68  61  79 S12       29.85F
TEKAMAH        CLOUDY    71  61  70 S22       29.83S
$$

NEZ050>053-065>068-078-088>093-251700-
SOUTHEAST NEBRASKA

CITY           SKY/WX    TMP DP  RH WIND       PRES   REMARKS
LINCOLN        CLOUDY    68  62  81 S5        29.87F
OMAHA EPPLEY   PTSUNNY   69  62  78 S8        29.86F
BEATRICE       CLOUDY    65  60  85 SE6       29.88F
FALLS CITY     LGT RAIN  65  62  90 N7        29.93F
NEBRASKA CITY  LGT RAIN  66  57  72 S16G28    29.81F
PLATTSMOUTH    CLOUDY    67  64  89 S5        29.88F
$$

NEZ044-045-051>053-067-251700-
OMAHA AREA

CITY           SKY/WX    TMP DP  RH WIND       PRES   REMARKS
OMAHA EPPLEY   PTSUNNY   69  62  78 S8        29.86F
BLAIR          PTSUNNY   68  62  82 S14       29.86F
FREMONT        CLOUDY    68  61  79 S12       29.85F
OFFUTT AFB     PTSUNNY   67  62  82 S3        29.85F
PLATTSMOUTH    CLOUDY    67  64  89 S5        29.88F
WAHOO          FAIR      68  61  79 S9        29.86F
$$




USA.gov is the U.S. government's official web portal to all federal, state and local government web resources and services.